Time,TemperatureF,DewpointF,PressureIn,WindDirection,WindDirectionDegrees,WindSpeedMPH,WindSpeedGustMPH,Humidity,HourlyPrecipIn,Conditions,Clouds,dailyrainin,SoftwareType,DateUTC
2013-08-03 00:02:00,61.0,53.4,30.08,North,0,0.0,0.0,76,0.00,CLR,,0.00,WeatherDisplay:10.37,2013-08-03 05:02:00,
2013-08-03 00:07:00,61.0,53.4,30.08,North,0,0.0,0.0,76,0.00,CLR,,0.00,WeatherDisplay:10.37,2013-08-03 05:07:00,
2013-08-03 00:12:00,60.9,52.9,30.08,North,0,0.0,0.0,75,0.00,CLR,,0.00,WeatherDisplay:10.37,2013-08-03 05:12:00,
2013-08-03 00:17:00,60.9,52.9,30.08,North,0,0.0,0.0,75,0.00,CLR,,0.00,WeatherDisplay:10.37,2013-08-03 05:17:00,
2013-08-03 00:22:00,61.0,53.4,30.08,North,0,0.0,0.0,76,0.00,CLR,,0.00,WeatherDisplay:10.37,2013-08-03 05:22:00,
2013-08-03 00:27:00,61.0,53.4,30.08,North,0,0.0,0.0,76,0.00,CLR,,0.00,WeatherDisplay:10.37,2013-08-03 05:27:00,
2013-08-03 00:32:00,60.9,53.6,30.08,North,0,0.0,0.0,77,0.00,CLR,,0.00,WeatherDisplay:10.37,2013-08-03 05:32:00,
2013-08-03 00:37:00,60.9,53.6,30.08,North,0,0.0,0.0,77,0.00,CLR,,0.00,WeatherDisplay:10.37,2013-08-03 05:37:00,
2013-08-03 00:42:00,60.7,53.1,30.09,North,0,0.0,0.0,76,0.00,CLR,,0.00,WeatherDisplay:10.37,2013-08-03 05:42:00,
2013-08-03 00:47:00,60.7,53.8,30.08,North,0,0.0,0.0,78,0.00,CLR,,0.00,WeatherDisplay:10.37,2013-08-03 05:47:00,
2013-08-03 00:52:00,60.6,54.0,30.09,North,0,0.0,0.0,79,0.00,CLR,,0.00,WeatherDisplay:10.37,2013-08-03 05:52:00,
2013-08-03 00:57:00,60.6,54.4,30.09,North,0,0.0,0.0,80,0.00,CLR,,0.00,WeatherDisplay:10.37,2013-08-03 05:57:00,
2013-08-03 01:02:00,60.6,54.4,30.09,North,0,0.0,0.0,80,0.00,CLR,,0.00,WeatherDisplay:10.37,2013-08-03 06:02:00,
2013-08-03 01:07:00,60.4,54.2,30.09,North,0,0.0,0.0,80,0.00,CLR,,0.00,WeatherDisplay:10.37,2013-08-03 06:07:00,
2013-08-03 01:12:00,60.2,54.0,30.08,North,0,0.0,0.0,80,0.00,CLR,,0.00,WeatherDisplay:10.37,2013-08-03 06:12:00,
2013-08-03 01:17:00,60.1,53.9,30.08,North,0,0.0,0.0,80,0.00,CLR,,0.00,WeatherDisplay:10.37,2013-08-03 06:17:00,
2013-08-03 01:22:00,59.9,53.7,30.08,North,0,0.0,0.0,80,0.00,CLR,,0.00,WeatherDisplay:10.37,2013-08-03 06:22:00,
2013-08-03 01:27:00,59.8,53.6,30.08,North,0,0.0,0.0,80,0.00,CLR,,0.00,WeatherDisplay:10.37,2013-08-03 06:27:00,
2013-08-03 01:32:00,59.6,53.8,30.08,North,0,0.0,0.0,81,0.00,CLR,,0.00,WeatherDisplay:10.37,2013-08-03 06:32:00,
2013-08-03 01:37:00,59.5,53.7,30.08,North,0,0.0,0.0,81,0.00,CLR,,0.00,WeatherDisplay:10.37,2013-08-03 06:37:00,
2013-08-03 01:42:00,59.3,53.8,30.08,North,0,0.0,0.0,82,0.00,CLR,,0.00,WeatherDisplay:10.37,2013-08-03 06:42:00,
2013-08-03 01:47:00,59.2,53.7,30.08,North,0,0.0,0.0,82,0.00,CLR,,0.00,WeatherDisplay:10.37,2013-08-03 06:47:00,
2013-08-03 01:52:00,59.2,54.0,30.08,North,0,0.0,0.0,83,0.00,CLR,,0.00,WeatherDisplay:10.37,2013-08-03 06:52:00,
2013-08-03 01:57:00,59.0,53.8,30.08,North,0,0.0,0.0,83,0.00,CLR,,0.00,WeatherDisplay:10.37,2013-08-03 06:57:00,
2013-08-03 02:02:00,58.9,53.7,30.08,North,0,0.0,0.0,83,0.00,CLR,,0.00,WeatherDisplay:10.37,2013-08-03 07:02:00,
2013-08-03 02:07:00,58.9,53.7,30.08,North,0,0.0,0.0,83,0.00,CLR,,0.00,WeatherDisplay:10.37,2013-08-03 07:07:00,
2013-08-03 02:12:00,58.9,54.1,30.08,North,0,0.0,0.0,84,0.00,CLR,,0.00,WeatherDisplay:10.37,2013-08-03 07:12:00,
2013-08-03 02:17:00,58.9,54.1,30.08,North,0,0.0,0.0,84,0.00,CLR,,0.00,WeatherDisplay:10.37,2013-08-03 07:17:00,
2013-08-03 02:22:00,58.9,54.1,30.09,North,0,0.0,0.0,84,0.00,CLR,,0.00,WeatherDisplay:10.37,2013-08-03 07:22:00,
2013-08-03 02:27:00,59.0,54.2,30.08,North,0,0.0,0.0,84,0.00,CLR,,0.00,WeatherDisplay:10.37,2013-08-03 07:27:00,
2013-08-03 02:32:00,59.0,54.5,30.08,North,0,0.0,0.0,85,0.00,CLR,,0.00,WeatherDisplay:10.37,2013-08-03 07:32:00,
2013-08-03 02:37:00,58.9,54.1,30.08,North,0,0.0,0.0,84,0.00,CLR,,0.00,WeatherDisplay:10.37,2013-08-03 07:37:00,
2013-08-03 02:43:00,58.9,54.1,30.08,North,0,0.0,0.0,84,0.00,CLR,,0.00,WeatherDisplay:10.37,2013-08-03 07:43:00,
2013-08-03 02:47:00,58.7,53.9,30.08,North,0,0.0,0.0,84,0.00,CLR,,0.00,WeatherDisplay:10.37,2013-08-03 07:47:00,
2013-08-03 02:53:00,58.6,53.8,30.08,North,0,0.0,0.0,84,0.00,CLR,,0.00,WeatherDisplay:10.37,2013-08-03 07:53:00,
2013-08-03 02:58:00,58.4,53.6,30.08,North,0,0.0,0.0,84,0.00,CLR,,0.00,WeatherDisplay:10.37,2013-08-03 07:58:00,
2013-08-03 03:03:00,58.2,53.4,30.08,North,0,0.0,0.0,84,0.00,CLR,,0.00,WeatherDisplay:10.37,2013-08-03 08:03:00,
2013-08-03 03:08:00,58.2,53.1,30.08,North,0,0.0,0.0,83,0.00,CLR,,0.00,WeatherDisplay:10.37,2013-08-03 08:08:00,
2013-08-03 03:13:00,58.1,53.0,30.09,North,0,0.0,0.0,83,0.00,CLR,,0.00,WeatherDisplay:10.37,2013-08-03 08:13:00,
2013-08-03 03:18:00,57.9,53.1,30.09,North,0,0.0,0.0,84,0.00,CLR,,0.00,WeatherDisplay:10.37,2013-08-03 08:18:00,
2013-08-03 03:23:00,58.0,53.2,30.09,North,0,0.0,0.0,84,0.00,CLR,,0.00,WeatherDisplay:10.37,2013-08-03 08:23:00,
2013-08-03 03:28:00,58.0,53.2,30.09,North,0,0.0,0.0,84,0.00,CLR,,0.00,WeatherDisplay:10.37,2013-08-03 08:28:00,
2013-08-03 03:33:00,57.8,53.0,30.09,North,0,0.0,0.0,84,0.00,CLR,,0.00,WeatherDisplay:10.37,2013-08-03 08:33:00,
2013-08-03 03:38:00,57.8,53.0,30.10,North,0,0.0,0.0,84,0.00,CLR,,0.00,WeatherDisplay:10.37,2013-08-03 08:38:00,
2013-08-03 03:43:00,57.7,52.9,30.10,North,0,0.0,0.0,84,0.00,CLR,,0.00,WeatherDisplay:10.37,2013-08-03 08:43:00,
2013-08-03 03:48:00,57.7,52.9,30.10,North,0,0.0,0.0,84,0.00,CLR,,0.00,WeatherDisplay:10.37,2013-08-03 08:48:00,
2013-08-03 03:53:00,57.6,52.8,30.09,North,0,0.0,0.0,84,0.00,CLR,,0.00,WeatherDisplay:10.37,2013-08-03 08:53:00,
2013-08-03 03:58:00,57.6,52.8,30.09,North,0,0.0,0.0,84,0.00,CLR,,0.00,WeatherDisplay:10.37,2013-08-03 08:58:00,
2013-08-03 04:03:00,57.7,52.6,30.09,North,0,0.0,0.0,83,0.00,CLR,,0.00,WeatherDisplay:10.37,2013-08-03 09:03:00,
2013-08-03 04:08:00,57.6,52.8,30.09,North,0,0.0,0.0,84,0.00,CLR,,0.00,WeatherDisplay:10.37,2013-08-03 09:08:00,
2013-08-03 04:13:00,57.8,52.7,30.09,North,0,0.0,0.0,83,0.00,CLR,,0.00,WeatherDisplay:10.37,2013-08-03 09:13:00,
2013-08-03 04:18:00,58.0,52.9,30.10,North,0,0.0,0.0,83,0.00,CLR,,0.00,WeatherDisplay:10.37,2013-08-03 09:18:00,
2013-08-03 04:23:00,58.1,53.0,30.10,North,0,0.0,0.0,83,0.00,CLR,,0.00,WeatherDisplay:10.37,2013-08-03 09:23:00,
2013-08-03 04:28:00,58.1,53.0,30.10,North,0,0.0,0.0,83,0.00,CLR,,0.00,WeatherDisplay:10.37,2013-08-03 09:28:00,
2013-08-03 04:33:00,58.1,52.6,30.10,North,0,0.0,0.0,82,0.00,CLR,,0.00,WeatherDisplay:10.37,2013-08-03 09:33:00,
2013-08-03 04:38:00,58.1,53.0,30.11,North,0,0.0,0.0,83,0.00,CLR,,0.00,WeatherDisplay:10.37,2013-08-03 09:38:00,
2013-08-03 04:43:00,58.1,53.0,30.11,North,0,0.0,0.0,83,0.00,CLR,,0.00,WeatherDisplay:10.37,2013-08-03 09:43:00,
2013-08-03 04:48:00,58.0,52.5,30.10,North,0,0.0,0.0,82,0.00,CLR,,0.00,WeatherDisplay:10.37,2013-08-03 09:48:00,
2013-08-03 04:53:00,58.0,52.5,30.11,North,0,0.0,0.0,82,0.00,CLR,,0.00,WeatherDisplay:10.37,2013-08-03 09:53:00,
2013-08-03 04:58:00,57.8,52.3,30.11,North,0,0.0,0.0,82,0.00,CLR,,0.00,WeatherDisplay:10.37,2013-08-03 09:58:00,
2013-08-03 05:03:00,58.0,52.5,30.11,North,0,0.0,0.0,82,0.00,CLR,,0.00,WeatherDisplay:10.37,2013-08-03 10:03:00,
2013-08-03 05:08:00,58.0,52.9,30.11,North,0,0.0,0.0,83,0.00,CLR,,0.00,WeatherDisplay:10.37,2013-08-03 10:08:00,
2013-08-03 05:13:00,58.0,52.5,30.10,North,0,0.0,0.0,82,0.00,CLR,,0.00,WeatherDisplay:10.37,2013-08-03 10:13:00,
2013-08-03 05:18:00,57.8,52.3,30.10,North,0,0.0,0.0,82,0.00,CLR,,0.00,WeatherDisplay:10.37,2013-08-03 10:18:00,
2013-08-03 05:23:00,57.8,52.3,30.10,North,0,0.0,0.0,82,0.00,CLR,,0.00,WeatherDisplay:10.37,2013-08-03 10:23:00,
2013-08-03 05:28:00,57.6,52.1,30.10,North,0,0.0,0.0,82,0.00,CLR,,0.00,WeatherDisplay:10.37,2013-08-03 10:28:00,
2013-08-03 05:33:00,57.5,52.0,30.10,North,0,0.0,0.0,82,0.00,CLR,,0.00,WeatherDisplay:10.37,2013-08-03 10:33:00,
2013-08-03 05:38:00,57.3,51.9,30.10,North,0,0.0,0.0,82,0.00,CLR,,0.00,WeatherDisplay:10.37,2013-08-03 10:38:00,
2013-08-03 05:43:00,57.2,52.1,30.10,North,0,0.0,0.0,83,0.00,CLR,,0.00,WeatherDisplay:10.37,2013-08-03 10:43:00,
2013-08-03 05:48:00,57.0,51.9,30.10,North,0,0.0,0.0,83,0.00,CLR,,0.00,WeatherDisplay:10.37,2013-08-03 10:48:00,
2013-08-03 05:53:00,56.9,51.8,30.10,North,0,0.0,0.0,83,0.00,CLR,,0.00,WeatherDisplay:10.37,2013-08-03 10:53:00,
2013-08-03 05:58:00,56.7,51.9,30.10,North,0,0.0,0.0,84,0.00,CLR,,0.00,WeatherDisplay:10.37,2013-08-03 10:58:00,
2013-08-03 06:03:00,56.6,51.5,30.10,North,0,0.0,0.0,83,0.00,CLR,,0.00,WeatherDisplay:10.37,2013-08-03 11:03:00,
2013-08-03 06:08:00,56.5,51.7,30.11,North,0,0.0,0.0,84,0.00,CLR,,0.00,WeatherDisplay:10.37,2013-08-03 11:08:00,
2013-08-03 06:13:00,56.4,51.6,30.11,North,0,0.0,0.0,84,0.00,CLR,,0.00,WeatherDisplay:10.37,2013-08-03 11:13:00,
2013-08-03 06:18:00,56.1,51.3,30.11,North,0,0.0,0.0,84,0.00,CLR,,0.00,WeatherDisplay:10.37,2013-08-03 11:18:00,
2013-08-03 06:23:00,56.1,51.7,30.11,North,0,0.0,0.0,85,0.00,CLR,,0.00,WeatherDisplay:10.37,2013-08-03 11:23:00,
2013-08-03 06:28:00,56.0,51.6,30.11,North,0,0.0,0.0,85,0.00,CLR,,0.00,WeatherDisplay:10.37,2013-08-03 11:28:00,
2013-08-03 06:33:00,56.0,51.9,30.11,North,0,0.0,0.0,86,0.00,CLR,,0.00,WeatherDisplay:10.37,2013-08-03 11:33:00,
2013-08-03 06:38:00,56.0,51.9,30.11,North,0,0.0,0.0,86,0.00,CLR,,0.00,WeatherDisplay:10.37,2013-08-03 11:38:00,
2013-08-03 06:43:00,56.0,52.2,30.11,North,0,0.0,0.0,87,0.00,CLR,,0.00,WeatherDisplay:10.37,2013-08-03 11:43:00,
2013-08-03 06:48:00,56.0,52.2,30.12,North,0,0.0,0.0,87,0.00,CLR,,0.00,WeatherDisplay:10.37,2013-08-03 11:48:00,
2013-08-03 06:53:00,56.2,52.4,30.12,North,0,0.0,0.0,87,0.00,CLR,,0.00,WeatherDisplay:10.37,2013-08-03 11:53:00,
2013-08-03 06:58:00,56.3,52.2,30.12,North,0,0.0,0.0,86,0.00,CLR,,0.00,WeatherDisplay:10.37,2013-08-03 11:58:00,
2013-08-03 07:03:00,56.5,52.7,30.13,North,0,1.2,1.2,87,0.00,CLR,,0.00,WeatherDisplay:10.37,2013-08-03 12:03:00,
2013-08-03 07:08:00,56.7,52.9,30.13,North,0,2.3,2.3,87,0.00,CLR,,0.00,WeatherDisplay:10.37,2013-08-03 12:08:00,
2013-08-03 07:13:00,57.0,52.9,30.14,North,0,0.0,0.0,86,0.00,CLR,,0.00,WeatherDisplay:10.37,2013-08-03 12:13:00,
2013-08-03 07:18:00,57.4,52.9,30.14,North,0,0.0,0.0,85,0.00,CLR,,0.00,WeatherDisplay:10.37,2013-08-03 12:18:00,
2013-08-03 07:23:00,57.7,53.2,30.13,North,0,1.2,1.2,85,0.00,CLR,,0.00,WeatherDisplay:10.37,2013-08-03 12:23:00,
2013-08-03 07:28:00,57.8,53.0,30.14,North,0,0.0,0.0,84,0.00,CLR,,0.00,WeatherDisplay:10.37,2013-08-03 12:28:00,
2013-08-03 07:33:00,58.1,53.3,30.14,North,0,0.0,0.0,84,0.00,CLR,,0.00,WeatherDisplay:10.37,2013-08-03 12:33:00,
2013-08-03 07:38:00,58.3,53.5,30.14,North,0,0.0,0.0,84,0.00,CLR,,0.00,WeatherDisplay:10.37,2013-08-03 12:38:00,
2013-08-03 07:43:00,58.6,53.5,30.15,North,0,0.0,0.0,83,0.00,CLR,,0.00,WeatherDisplay:10.37,2013-08-03 12:43:00,
2013-08-03 07:48:00,59.0,53.8,30.15,North,0,0.0,0.0,83,0.00,CLR,,0.00,WeatherDisplay:10.37,2013-08-03 12:48:00,
2013-08-03 07:53:00,59.8,54.6,30.15,North,0,0.0,0.0,83,0.00,CLR,,0.00,WeatherDisplay:10.37,2013-08-03 12:53:00,
2013-08-03 07:58:00,60.6,54.4,30.15,North,0,1.2,1.2,80,0.00,CLR,,0.00,WeatherDisplay:10.37,2013-08-03 12:58:00,
2013-08-03 08:03:00,61.0,54.1,30.16,North,0,2.3,2.3,78,0.00,CLR,,0.00,WeatherDisplay:10.37,2013-08-03 13:03:00,
2013-08-03 08:08:00,61.2,53.9,30.16,North,0,1.2,1.2,77,0.00,CLR,,0.00,WeatherDisplay:10.37,2013-08-03 13:08:00,
2013-08-03 08:13:00,61.4,53.8,30.16,North,0,2.3,2.3,76,0.00,CLR,,0.00,WeatherDisplay:10.37,2013-08-03 13:13:00,
2013-08-03 08:18:00,61.5,53.5,30.17,North,0,0.0,0.0,75,0.00,CLR,,0.00,WeatherDisplay:10.37,2013-08-03 13:18:00,
2013-08-03 08:23:00,61.8,54.2,30.17,North,0,2.3,2.3,76,0.00,CLR,,0.00,WeatherDisplay:10.37,2013-08-03 13:23:00,
2013-08-03 08:28:00,62.1,54.4,30.17,North,0,3.5,3.5,76,0.00,CLR,,0.00,WeatherDisplay:10.37,2013-08-03 13:28:00,
2013-08-03 08:33:00,62.5,54.8,30.17,North,0,3.5,3.5,76,0.00,CLR,,0.00,WeatherDisplay:10.37,2013-08-03 13:33:00,
2013-08-03 08:39:00,62.6,54.6,30.17,North,0,0.0,0.0,75,0.00,CLR,,0.00,WeatherDisplay:10.37,2013-08-03 13:39:00,
2013-08-03 08:44:00,62.9,55.2,30.17,North,0,0.0,0.0,76,0.00,CLR,,0.00,WeatherDisplay:10.37,2013-08-03 13:44:00,
2013-08-03 08:49:00,63.1,55.4,30.17,North,0,3.5,3.5,76,0.00,CLR,,0.00,WeatherDisplay:10.37,2013-08-03 13:49:00,
2013-08-03 08:54:00,63.2,55.5,30.17,North,0,3.5,3.5,76,0.00,CLR,,0.00,WeatherDisplay:10.37,2013-08-03 13:54:00,
2013-08-03 08:59:00,63.4,55.3,30.18,North,0,3.5,3.5,75,0.00,CLR,,0.00,WeatherDisplay:10.37,2013-08-03 13:59:00,
2013-08-03 09:03:00,63.5,54.7,30.17,North,0,2.3,2.3,73,0.00,CLR,,0.00,WeatherDisplay:10.37,2013-08-03 14:03:00,
2013-08-03 09:08:00,63.7,54.5,30.17,North,0,2.3,2.3,72,0.00,CLR,,0.00,WeatherDisplay:10.37,2013-08-03 14:08:00,
2013-08-03 09:14:00,63.9,54.7,30.17,North,0,1.2,1.2,72,0.00,CLR,,0.00,WeatherDisplay:10.37,2013-08-03 14:14:00,
2013-08-03 09:19:00,64.1,54.1,30.17,North,0,0.0,0.0,70,0.00,CLR,,0.00,WeatherDisplay:10.37,2013-08-03 14:19:00,
2013-08-03 09:24:00,64.4,53.6,30.18,North,0,3.5,3.5,68,0.00,CLR,,0.00,WeatherDisplay:10.37,2013-08-03 14:24:00,
2013-08-03 09:29:00,64.9,54.1,30.17,North,0,3.5,3.5,68,0.00,CLR,,0.00,WeatherDisplay:10.37,2013-08-03 14:29:00,
2013-08-03 09:34:00,65.5,54.2,30.17,North,0,2.3,2.3,67,0.00,CLR,,0.00,WeatherDisplay:10.37,2013-08-03 14:34:00,
2013-08-03 09:39:00,66.1,55.2,30.17,North,0,2.3,2.3,68,0.00,CLR,,0.00,WeatherDisplay:10.37,2013-08-03 14:39:00,
2013-08-03 09:44:00,66.6,54.9,30.17,North,0,3.5,3.5,66,0.00,CLR,,0.00,WeatherDisplay:10.37,2013-08-03 14:44:00,
2013-08-03 09:49:00,66.9,54.3,30.18,North,0,3.5,3.5,64,0.00,CLR,,0.00,WeatherDisplay:10.37,2013-08-03 14:49:00,
2013-08-03 09:54:00,67.5,55.7,30.18,North,0,2.3,2.3,66,0.00,CLR,,0.00,WeatherDisplay:10.37,2013-08-03 14:54:00,
2013-08-03 09:59:00,67.8,54.7,30.18,North,349,3.5,3.5,63,0.00,CLR,,0.00,WeatherDisplay:10.37,2013-08-03 14:59:00,
2013-08-03 10:04:00,67.9,54.8,30.19,NNW,341,3.5,3.5,63,0.00,CLR,,0.00,WeatherDisplay:10.37,2013-08-03 15:04:00,
2013-08-03 10:09:00,68.0,53.6,30.19,West,276,2.3,2.3,60,0.00,CLR,,0.00,WeatherDisplay:10.37,2013-08-03 15:09:00,
2013-08-03 10:14:00,68.1,53.7,30.19,West,275,2.3,2.3,60,0.00,CLR,,0.00,WeatherDisplay:10.37,2013-08-03 15:14:00,
2013-08-03 10:19:00,68.5,53.1,30.20,West,275,3.5,3.5,58,0.00,CLR,,0.00,WeatherDisplay:10.37,2013-08-03 15:19:00,
2013-08-03 10:24:00,69.0,52.6,30.20,NW,311,2.3,2.3,56,0.00,CLR,,0.00,WeatherDisplay:10.37,2013-08-03 15:24:00,
2013-08-03 10:29:00,69.8,53.9,30.20,NW,311,1.2,1.2,57,0.00,CLR,,0.00,WeatherDisplay:10.37,2013-08-03 15:29:00,
2013-08-03 10:34:00,70.3,55.3,30.20,WNW,297,3.5,3.5,59,0.00,CLR,,0.00,WeatherDisplay:10.37,2013-08-03 15:34:00,
2013-08-03 10:39:00,70.8,55.8,30.20,West,273,3.5,3.5,59,0.00,CLR,,0.00,WeatherDisplay:10.37,2013-08-03 15:39:00,
2013-08-03 10:44:00,71.5,54.0,30.19,North,0,2.3,2.3,54,0.00,CLR,,0.00,WeatherDisplay:10.37,2013-08-03 15:44:00,
2013-08-03 10:49:00,71.6,55.6,30.20,North,0,3.5,3.5,57,0.00,CLR,,0.00,WeatherDisplay:10.37,2013-08-03 15:49:00,
2013-08-03 10:54:00,71.6,55.6,30.19,North,0,3.5,3.5,57,0.00,CLR,,0.00,WeatherDisplay:10.37,2013-08-03 15:54:00,
2013-08-03 10:59:00,71.5,53.5,30.19,WSW,251,3.5,3.5,53,0.00,CLR,,0.00,WeatherDisplay:10.37,2013-08-03 15:59:00,
2013-08-03 11:04:00,71.3,53.3,30.19,SSW,212,3.5,3.5,53,0.00,CLR,,0.00,WeatherDisplay:10.37,2013-08-03 16:04:00,
2013-08-03 11:09:00,71.8,54.3,30.19,SSW,212,3.0,3.0,54,0.00,CLR,,0.00,WeatherDisplay:10.37,2013-08-03 16:09:00,
2013-08-03 11:14:00,72.8,54.7,30.19,SSW,211,3.5,3.5,53,0.00,CLR,,0.00,WeatherDisplay:10.37,2013-08-03 16:14:00,
2013-08-03 11:19:00,73.8,53.4,30.20,ENE,72,2.3,2.3,49,0.00,CLR,,0.00,WeatherDisplay:10.37,2013-08-03 16:19:00,
2013-08-03 11:24:00,74.3,53.3,30.19,NE,55,3.5,3.5,48,0.00,CLR,,0.00,WeatherDisplay:10.37,2013-08-03 16:24:00,
2013-08-03 11:29:00,74.9,53.3,30.20,North,359,3.5,3.5,47,0.00,CLR,,0.00,WeatherDisplay:10.37,2013-08-03 16:29:00,
2013-08-03 11:34:00,75.6,53.9,30.20,NNE,30,3.5,3.5,47,0.00,CLR,,0.00,WeatherDisplay:10.37,2013-08-03 16:34:00,
2013-08-03 11:39:00,75.4,54.3,30.20,NNE,22,3.5,3.5,48,0.00,CLR,,0.00,WeatherDisplay:10.37,2013-08-03 16:39:00,
2013-08-03 11:44:00,75.4,53.8,30.20,NNE,22,3.5,3.5,47,0.00,CLR,,0.00,WeatherDisplay:10.37,2013-08-03 16:44:00,
2013-08-03 11:49:00,75.4,54.3,30.20,NE,37,3.0,3.0,48,0.00,CLR,,0.00,WeatherDisplay:10.37,2013-08-03 16:49:00,
2013-08-03 11:54:00,75.6,52.8,30.20,North,6,3.5,3.5,45,0.00,CLR,,0.00,WeatherDisplay:10.37,2013-08-03 16:54:00,
2013-08-03 11:59:00,75.7,53.4,30.20,North,359,3.5,3.5,46,0.00,CLR,,0.00,WeatherDisplay:10.37,2013-08-03 16:59:00,
2013-08-03 12:04:00,76.1,54.4,30.20,WNW,286,2.0,2.0,47,0.00,CLR,,0.00,WeatherDisplay:10.37,2013-08-03 17:04:00,
2013-08-03 12:09:00,75.9,54.2,30.20,North,353,3.5,3.5,47,0.00,CLR,,0.00,WeatherDisplay:10.37,2013-08-03 17:09:00,
2013-08-03 12:14:00,76.4,54.7,30.20,North,358,2.3,2.3,47,0.00,CLR,,0.00,WeatherDisplay:10.37,2013-08-03 17:14:00,
2013-08-03 12:19:00,76.3,54.6,30.20,NNE,12,2.3,2.3,47,0.00,CLR,,0.00,WeatherDisplay:10.37,2013-08-03 17:19:00,
2013-08-03 12:24:00,76.1,54.4,30.20,NNE,20,3.5,3.5,47,0.00,CLR,,0.00,WeatherDisplay:10.37,2013-08-03 17:24:00,
2013-08-03 12:29:00,76.3,54.0,30.20,West,280,2.3,2.3,46,0.00,CLR,,0.00,WeatherDisplay:10.37,2013-08-03 17:29:00,
2013-08-03 12:34:00,75.9,54.8,30.20,North,6,3.5,3.5,48,0.00,CLR,,0.00,WeatherDisplay:10.37,2013-08-03 17:34:00,
2013-08-03 12:39:00,76.1,54.4,30.20,NE,47,3.5,3.5,47,0.00,CLR,,0.00,WeatherDisplay:10.37,2013-08-03 17:39:00,
2013-08-03 12:44:00,75.9,54.8,30.20,NE,40,3.0,3.0,48,0.00,CLR,,0.00,WeatherDisplay:10.37,2013-08-03 17:44:00,
2013-08-03 12:49:00,75.7,53.4,30.20,ENE,74,3.5,3.5,46,0.00,CLR,,0.00,WeatherDisplay:10.37,2013-08-03 17:49:00,
2013-08-03 12:54:00,75.9,54.2,30.20,WSW,239,3.5,3.5,47,0.00,CLR,,0.00,WeatherDisplay:10.37,2013-08-03 17:54:00,
2013-08-03 12:59:00,75.8,53.5,30.20,North,3,2.0,4.0,46,0.00,CLR,,0.00,WeatherDisplay:10.37,2013-08-03 17:59:00,
2013-08-03 13:04:00,76.1,54.4,30.20,ENE,57,1.0,3.0,47,0.00,CLR,,0.00,WeatherDisplay:10.37,2013-08-03 18:04:00,
2013-08-03 13:09:00,76.1,54.4,30.20,ENE,71,3.5,3.5,47,0.00,CLR,,0.00,WeatherDisplay:10.37,2013-08-03 18:09:00,
2013-08-03 13:14:00,76.3,52.8,30.20,NE,47,1.0,4.0,44,0.00,CLR,,0.00,WeatherDisplay:10.37,2013-08-03 18:14:00,
2013-08-03 13:19:00,76.1,51.3,30.20,NNE,31,3.5,3.5,42,0.00,CLR,,0.00,WeatherDisplay:10.37,2013-08-03 18:19:00,
2013-08-03 13:24:00,75.4,53.2,30.20,NNE,24,2.3,2.3,46,0.00,CLR,,0.00,WeatherDisplay:10.37,2013-08-03 18:24:00,
2013-08-03 13:29:00,75.0,54.0,30.20,NNE,24,1.0,3.0,48,0.00,CLR,,0.00,WeatherDisplay:10.37,2013-08-03 18:29:00,
2013-08-03 13:34:00,75.4,53.8,30.21,ENE,72,3.5,3.5,47,0.00,CLR,,0.00,WeatherDisplay:10.37,2013-08-03 18:34:00,
2013-08-03 13:39:00,75.9,51.2,30.21,North,350,3.5,3.5,42,0.00,CLR,,0.00,WeatherDisplay:10.37,2013-08-03 18:39:00,
2013-08-03 13:44:00,75.7,53.5,30.21,NE,43,1.0,4.0,46,0.00,CLR,,0.00,WeatherDisplay:10.37,2013-08-03 18:44:00,
2013-08-03 13:49:00,76.1,52.6,30.21,NNE,31,5.8,5.8,44,0.00,CLR,,0.00,WeatherDisplay:10.37,2013-08-03 18:49:00,
2013-08-03 13:54:00,76.8,52.6,30.21,NNE,18,3.5,3.5,43,0.00,CLR,,0.00,WeatherDisplay:10.37,2013-08-03 18:54:00,
2013-08-03 13:59:00,77.3,54.3,30.21,North,360,1.0,4.0,45,0.00,CLR,,0.00,WeatherDisplay:10.37,2013-08-03 18:59:00,
2013-08-03 14:04:00,77.9,54.8,30.21,NNE,18,2.3,2.3,45,0.00,CLR,,0.00,WeatherDisplay:10.37,2013-08-03 19:04:00,
2013-08-03 14:09:00,78.2,51.9,30.21,SE,140,4.6,4.6,40,0.00,CLR,,0.00,WeatherDisplay:10.37,2013-08-03 19:09:00,
2013-08-03 14:14:00,77.5,53.9,30.21,NW,309,1.0,3.0,44,0.00,CLR,,0.00,WeatherDisplay:10.37,2013-08-03 19:14:00,
2013-08-03 14:19:00,77.7,54.7,30.20,NNE,31,3.5,3.5,45,0.00,CLR,,0.00,WeatherDisplay:10.37,2013-08-03 19:19:00,
2013-08-03 14:24:00,78.0,53.7,30.21,NNE,29,1.0,3.0,43,0.00,CLR,,0.00,WeatherDisplay:10.37,2013-08-03 19:24:00,
2013-08-03 14:29:00,77.9,52.9,30.20,North,8,1.0,3.0,42,0.00,CLR,,0.00,WeatherDisplay:10.37,2013-08-03 19:29:00,
2013-08-03 14:34:00,76.8,52.0,30.20,NE,41,3.5,3.5,42,0.00,CLR,,0.00,WeatherDisplay:10.37,2013-08-03 19:34:00,
2013-08-03 14:39:00,76.3,52.8,30.20,NNE,20,3.5,3.5,44,0.00,CLR,,0.00,WeatherDisplay:10.37,2013-08-03 19:39:00,
2013-08-03 14:44:00,76.3,51.5,30.20,NNW,339,1.0,6.0,42,0.00,CLR,,0.00,WeatherDisplay:10.37,2013-08-03 19:44:00,
2013-08-03 14:49:00,76.1,52.0,30.20,NE,36,2.3,2.3,43,0.00,CLR,,0.00,WeatherDisplay:10.37,2013-08-03 19:49:00,
2013-08-03 14:54:00,75.6,52.2,30.20,NE,36,1.0,3.0,44,0.00,CLR,,0.00,WeatherDisplay:10.37,2013-08-03 19:54:00,
2013-08-03 14:59:00,75.4,52.0,30.19,NNE,26,2.3,2.3,44,0.00,CLR,,0.00,WeatherDisplay:10.37,2013-08-03 19:59:00,
2013-08-03 15:04:00,75.7,52.8,30.19,NNE,21,3.5,3.5,45,0.00,CLR,,0.00,WeatherDisplay:10.37,2013-08-03 20:04:00,
2013-08-03 15:09:00,76.3,52.8,30.19,NNE,24,1.0,4.0,44,0.00,CLR,,0.00,WeatherDisplay:10.37,2013-08-03 20:09:00,
2013-08-03 15:14:00,76.4,52.9,30.19,North,2,3.5,3.5,44,0.00,CLR,,0.00,WeatherDisplay:10.37,2013-08-03 20:14:00,
2013-08-03 15:19:00,77.2,54.2,30.19,WNW,289,2.3,2.3,45,0.00,CLR,,0.00,WeatherDisplay:10.37,2013-08-03 20:19:00,
2013-08-03 15:24:00,77.7,52.8,30.19,WNW,284,1.0,4.0,42,0.00,CLR,,0.00,WeatherDisplay:10.37,2013-08-03 20:24:00,
2013-08-03 15:29:00,77.9,51.6,30.19,NNW,327,3.5,3.5,40,0.00,CLR,,0.00,WeatherDisplay:10.37,2013-08-03 20:29:00,
2013-08-03 15:34:00,78.4,54.0,30.18,NNW,342,2.3,2.3,43,0.00,CLR,,0.00,WeatherDisplay:10.37,2013-08-03 20:34:00,
2013-08-03 15:39:00,79.0,52.6,30.18,NNE,30,2.3,2.3,40,0.00,CLR,,0.00,WeatherDisplay:10.37,2013-08-03 20:39:00,
2013-08-03 15:44:00,79.0,50.5,30.18,NNE,23,3.0,3.0,37,0.00,CLR,,0.00,WeatherDisplay:10.37,2013-08-03 20:44:00,
2013-08-03 15:49:00,79.0,52.6,30.18,North,10,1.0,5.0,40,0.00,CLR,,0.00,WeatherDisplay:10.37,2013-08-03 20:49:00,
2013-08-03 15:54:00,79.0,51.9,30.18,North,0,3.5,3.5,39,0.00,CLR,,0.00,WeatherDisplay:10.37,2013-08-03 20:54:00,
2013-08-03 15:59:00,78.8,50.3,30.18,SSW,201,3.5,3.5,37,0.00,CLR,,0.00,WeatherDisplay:10.37,2013-08-03 20:59:00,
2013-08-03 16:04:00,78.8,51.0,30.18,NNW,344,1.0,5.0,38,0.00,CLR,,0.00,WeatherDisplay:10.37,2013-08-03 21:04:00,
2013-08-03 16:09:00,78.8,50.3,30.18,North,0,2.3,2.3,37,0.00,CLR,,0.00,WeatherDisplay:10.37,2013-08-03 21:09:00,
2013-08-03 16:14:00,79.3,50.0,30.18,NE,42,3.5,3.5,36,0.00,CLR,,0.00,WeatherDisplay:10.37,2013-08-03 21:14:00,
2013-08-03 16:19:00,79.5,50.2,30.18,North,1,1.0,5.0,36,0.00,CLR,,0.00,WeatherDisplay:10.37,2013-08-03 21:19:00,
2013-08-03 16:24:00,79.5,51.0,30.18,NNW,335,1.0,5.0,37,0.00,CLR,,0.00,WeatherDisplay:10.37,2013-08-03 21:24:00,
2013-08-03 16:29:00,79.5,50.9,30.18,NNE,26,3.5,3.5,37,0.00,CLR,,0.00,WeatherDisplay:10.37,2013-08-03 21:29:00,
2013-08-03 16:34:00,79.5,50.2,30.18,NNE,20,1.0,3.0,36,0.00,CLR,,0.00,WeatherDisplay:10.37,2013-08-03 21:34:00,
2013-08-03 16:39:00,78.8,49.6,30.18,North,0,2.3,2.3,36,0.00,CLR,,0.00,WeatherDisplay:10.37,2013-08-03 21:39:00,
2013-08-03 16:44:00,78.1,49.7,30.18,North,5,1.0,4.0,37,0.00,CLR,,0.00,WeatherDisplay:10.37,2013-08-03 21:44:00,
2013-08-03 16:49:00,78.1,49.7,30.18,North,5,3.5,3.5,37,0.00,CLR,,0.00,WeatherDisplay:10.37,2013-08-03 21:49:00,
2013-08-03 16:54:00,78.0,51.0,30.18,NNE,33,2.3,2.3,39,0.00,CLR,,0.00,WeatherDisplay:10.37,2013-08-03 21:54:00,
2013-08-03 16:59:00,78.2,49.8,30.18,NNE,13,1.0,3.0,37,0.00,CLR,,0.00,WeatherDisplay:10.37,2013-08-03 21:59:00,
2013-08-03 17:04:00,78.4,50.0,30.18,NNW,343,2.3,2.3,37,0.00,CLR,,0.00,WeatherDisplay:10.37,2013-08-03 22:04:00,
2013-08-03 17:09:00,78.0,51.0,30.18,NW,306,2.3,2.3,39,0.00,CLR,,0.00,WeatherDisplay:10.37,2013-08-03 22:09:00,
2013-08-03 17:14:00,77.9,50.9,30.18,NNW,327,1.0,4.0,39,0.00,CLR,,0.00,WeatherDisplay:10.37,2013-08-03 22:14:00,
2013-08-03 17:19:00,77.9,50.9,30.18,North,358,3.0,3.0,39,0.00,CLR,,0.00,WeatherDisplay:10.37,2013-08-03 22:19:00,
2013-08-03 17:24:00,77.7,51.5,30.18,NNE,20,1.0,4.0,40,0.00,CLR,,0.00,WeatherDisplay:10.37,2013-08-03 22:24:00,
2013-08-03 17:29:00,77.4,49.8,30.18,NNE,24,2.0,6.0,38,0.00,CLR,,0.00,WeatherDisplay:10.37,2013-08-03 22:29:00,
2013-08-03 17:34:00,76.8,50.6,30.18,NE,39,1.0,7.0,40,0.00,CLR,,0.00,WeatherDisplay:10.37,2013-08-03 22:34:00,
2013-08-03 17:39:00,76.4,50.3,30.18,NE,51,3.5,3.5,40,0.00,CLR,,0.00,WeatherDisplay:10.37,2013-08-03 22:39:00,
2013-08-03 17:44:00,76.1,50.7,30.18,NNE,17,1.0,3.0,41,0.00,CLR,,0.00,WeatherDisplay:10.37,2013-08-03 22:44:00,
2013-08-03 17:49:00,75.9,51.2,30.18,North,354,1.0,5.0,42,0.00,CLR,,0.00,WeatherDisplay:10.37,2013-08-03 22:49:00,
2013-08-03 17:54:00,75.7,51.0,30.18,North,355,1.0,3.0,42,0.00,CLR,,0.00,WeatherDisplay:10.37,2013-08-03 22:54:00,
2013-08-03 17:59:00,75.6,50.2,30.18,NW,317,3.5,3.5,41,0.00,CLR,,0.00,WeatherDisplay:10.37,2013-08-03 22:59:00,
2013-08-03 18:04:00,75.4,51.3,30.18,NW,317,3.5,3.5,43,0.00,CLR,,0.00,WeatherDisplay:10.37,2013-08-03 23:04:00,
2013-08-03 18:09:00,75.2,50.5,30.18,North,0,4.6,4.6,42,0.00,CLR,,0.00,WeatherDisplay:10.37,2013-08-03 23:09:00,
2013-08-03 18:14:00,75.0,51.0,30.18,North,357,1.0,5.0,43,0.00,CLR,,0.00,WeatherDisplay:10.37,2013-08-03 23:14:00,
2013-08-03 18:19:00,74.9,50.9,30.18,NE,47,3.5,3.5,43,0.00,CLR,,0.00,WeatherDisplay:10.37,2013-08-03 23:19:00,
2013-08-03 18:24:00,74.9,52.1,30.18,NNE,19,1.0,4.0,45,0.00,CLR,,0.00,WeatherDisplay:10.37,2013-08-03 23:24:00,
2013-08-03 18:29:00,74.7,51.9,30.18,NNE,31,1.0,5.0,45,0.00,CLR,,0.00,WeatherDisplay:10.37,2013-08-03 23:29:00,
2013-08-03 18:34:00,74.5,52.4,30.18,NNE,33,3.5,3.5,46,0.00,CLR,,0.00,WeatherDisplay:10.37,2013-08-03 23:34:00,
2013-08-03 18:39:00,74.3,52.2,30.18,NNE,31,0.0,3.0,46,0.00,CLR,,0.00,WeatherDisplay:10.37,2013-08-03 23:39:00,
2013-08-03 18:44:00,74.0,52.5,30.18,North,359,3.0,3.0,47,0.00,CLR,,0.00,WeatherDisplay:10.37,2013-08-03 23:44:00,
2013-08-03 18:49:00,73.8,51.8,30.18,North,1,1.0,5.0,46,0.00,CLR,,0.00,WeatherDisplay:10.37,2013-08-03 23:49:00,
2013-08-03 18:54:00,73.7,51.6,30.18,WNW,297,3.5,3.5,46,0.00,CLR,,0.00,WeatherDisplay:10.37,2013-08-03 23:54:00,
2013-08-03 18:59:00,73.5,52.0,30.18,NNW,344,1.0,4.0,47,0.00,CLR,,0.00,WeatherDisplay:10.37,2013-08-03 23:59:00,
2013-08-03 19:04:00,73.3,52.4,30.18,North,351,1.0,5.0,48,0.00,CLR,,0.00,WeatherDisplay:10.37,2013-08-04 00:04:00,
2013-08-03 19:09:00,73.2,52.3,30.18,North,356,3.5,3.5,48,0.00,CLR,,0.00,WeatherDisplay:10.37,2013-08-04 00:09:00,
2013-08-03 19:14:00,73.0,52.1,30.18,NNW,338,1.0,4.0,48,0.00,CLR,,0.00,WeatherDisplay:10.37,2013-08-04 00:14:00,
2013-08-03 19:19:00,72.7,51.9,30.18,NNW,341,0.0,3.0,48,0.00,CLR,,0.00,WeatherDisplay:10.37,2013-08-04 00:19:00,
2013-08-03 19:24:00,72.6,52.3,30.18,NNW,344,1.0,3.0,49,0.00,CLR,,0.00,WeatherDisplay:10.37,2013-08-04 00:24:00,
2013-08-03 19:29:00,72.5,51.7,30.18,NNW,332,1.0,2.0,48,0.00,CLR,,0.00,WeatherDisplay:10.37,2013-08-04 00:29:00,
2013-08-03 19:34:00,72.3,52.1,30.18,NNW,340,0.0,3.0,49,0.00,CLR,,0.00,WeatherDisplay:10.37,2013-08-04 00:34:00,
2013-08-03 19:39:00,72.1,52.4,30.18,NNW,347,1.0,3.0,50,0.00,CLR,,0.00,WeatherDisplay:10.37,2013-08-04 00:39:00,
2013-08-03 19:44:00,71.8,52.2,30.18,NNW,347,1.0,3.0,50,0.00,CLR,,0.00,WeatherDisplay:10.37,2013-08-04 00:44:00,
2013-08-03 19:49:00,71.6,52.0,30.18,NNW,347,1.0,2.0,50,0.00,CLR,,0.00,WeatherDisplay:10.37,2013-08-04 00:49:00,
2013-08-03 19:54:00,71.5,52.4,30.18,North,349,2.3,2.3,51,0.00,CLR,,0.00,WeatherDisplay:10.37,2013-08-04 00:54:00,
2013-08-03 19:59:00,71.3,53.3,30.18,North,349,0.0,3.0,53,0.00,CLR,,0.00,WeatherDisplay:10.37,2013-08-04 00:59:00,
2013-08-03 20:04:00,70.9,52.9,30.18,North,349,0.0,0.0,53,0.00,CLR,,0.00,WeatherDisplay:10.37,2013-08-04 01:04:00,
2013-08-03 20:09:00,70.8,52.8,30.18,North,349,0.0,0.0,53,0.00,CLR,,0.00,WeatherDisplay:10.37,2013-08-04 01:09:00,
2013-08-03 20:14:00,70.5,53.5,30.18,North,349,0.0,0.0,55,0.00,CLR,,0.00,WeatherDisplay:10.37,2013-08-04 01:14:00,
2013-08-03 20:19:00,70.2,53.7,30.18,North,349,1.0,2.0,56,0.00,CLR,,0.00,WeatherDisplay:10.37,2013-08-04 01:19:00,
2013-08-03 20:24:00,69.8,52.9,30.18,North,349,0.0,0.0,55,0.00,CLR,,0.00,WeatherDisplay:10.37,2013-08-04 01:24:00,
2013-08-03 20:29:00,69.5,52.6,30.18,NNW,347,1.0,2.0,55,0.00,CLR,,0.00,WeatherDisplay:10.37,2013-08-04 01:29:00,
2013-08-03 20:34:00,69.3,51.9,30.18,NNW,340,0.0,2.0,54,0.00,CLR,,0.00,WeatherDisplay:10.37,2013-08-04 01:34:00,
2013-08-03 20:39:00,69.1,52.7,30.18,NNW,336,0.0,0.0,56,0.00,CLR,,0.00,WeatherDisplay:10.37,2013-08-04 01:39:00,
2013-08-03 20:44:00,69.0,53.6,30.19,NNW,336,0.0,0.0,58,0.00,CLR,,0.00,WeatherDisplay:10.37,2013-08-04 01:44:00,
2013-08-03 20:49:00,68.6,53.7,30.19,NNW,336,0.0,0.0,59,0.00,CLR,,0.00,WeatherDisplay:10.37,2013-08-04 01:49:00,
2013-08-03 20:54:00,68.3,53.4,30.19,NNW,336,0.0,0.0,59,0.00,CLR,,0.00,WeatherDisplay:10.37,2013-08-04 01:54:00,
2013-08-03 20:59:00,68.0,53.6,30.19,NNW,336,0.0,0.0,60,0.00,CLR,,0.00,WeatherDisplay:10.37,2013-08-04 01:59:00,
2013-08-03 21:04:00,67.6,53.2,30.19,NNW,336,0.0,0.0,60,0.00,CLR,,0.00,WeatherDisplay:10.37,2013-08-04 02:04:00,
2013-08-03 21:09:00,67.3,52.9,30.19,NNW,336,0.0,0.0,60,0.00,CLR,,0.00,WeatherDisplay:10.37,2013-08-04 02:09:00,
2013-08-03 21:14:00,66.8,53.4,30.20,NNW,336,0.0,0.0,62,0.00,CLR,,0.00,WeatherDisplay:10.37,2013-08-04 02:14:00,
2013-08-03 21:19:00,66.3,52.9,30.20,NNW,336,0.0,0.0,62,0.00,CLR,,0.00,WeatherDisplay:10.37,2013-08-04 02:19:00,
2013-08-03 21:24:00,66.0,53.5,30.20,NNW,336,0.0,0.0,64,0.00,CLR,,0.00,WeatherDisplay:10.37,2013-08-04 02:24:00,
2013-08-03 21:29:00,65.5,53.0,30.20,NNW,336,0.0,0.0,64,0.00,CLR,,0.00,WeatherDisplay:10.37,2013-08-04 02:29:00,
2013-08-03 21:34:00,65.2,53.6,30.20,NNW,336,2.3,0.0,66,0.00,CLR,,0.00,WeatherDisplay:10.37,2013-08-04 02:34:00,
2013-08-03 21:39:00,64.9,52.9,30.20,NNW,336,0.0,0.0,65,0.00,CLR,,0.00,WeatherDisplay:10.37,2013-08-04 02:39:00,
2013-08-03 21:44:00,64.5,52.5,30.20,NNW,336,0.0,0.0,65,0.00,CLR,,0.00,WeatherDisplay:10.37,2013-08-04 02:44:00,
2013-08-03 21:49:00,64.4,53.2,30.20,NNW,336,0.0,0.0,67,0.00,CLR,,0.00,WeatherDisplay:10.37,2013-08-04 02:49:00,
2013-08-03 21:54:00,64.2,52.6,30.20,NNW,336,0.0,0.0,66,0.00,CLR,,0.00,WeatherDisplay:10.37,2013-08-04 02:54:00,
2013-08-03 21:59:00,63.9,52.7,30.20,NNW,336,0.0,0.0,67,0.00,CLR,,0.00,WeatherDisplay:10.37,2013-08-04 02:59:00,
2013-08-03 22:04:00,63.7,53.0,30.20,NNW,336,0.0,0.0,68,0.00,CLR,,0.00,WeatherDisplay:10.37,2013-08-04 03:04:00,
2013-08-03 22:09:00,63.5,52.7,30.20,NNW,336,0.0,0.0,68,0.00,CLR,,0.00,WeatherDisplay:10.37,2013-08-04 03:09:00,
2013-08-03 22:14:00,63.4,52.2,30.21,NNW,336,0.0,0.0,67,0.00,CLR,,0.00,WeatherDisplay:10.37,2013-08-04 03:14:00,
2013-08-03 22:19:00,63.2,52.5,30.21,NNW,336,0.0,0.0,68,0.00,CLR,,0.00,WeatherDisplay:10.37,2013-08-04 03:19:00,
2013-08-03 22:24:00,63.1,52.4,30.21,NNW,336,2.3,2.3,68,0.00,CLR,,0.00,WeatherDisplay:10.37,2013-08-04 03:24:00,
2013-08-03 22:29:00,63.1,52.4,30.21,NNW,336,0.0,2.0,68,0.00,CLR,,0.00,WeatherDisplay:10.37,2013-08-04 03:29:00,
2013-08-03 22:34:00,63.2,52.1,30.21,NNW,336,0.0,0.0,67,0.00,CLR,,0.00,WeatherDisplay:10.37,2013-08-04 03:34:00,
2013-08-03 22:39:00,63.2,52.5,30.21,NNW,336,0.0,0.0,68,0.00,CLR,,0.00,WeatherDisplay:10.37,2013-08-04 03:39:00,
2013-08-03 22:44:00,63.2,52.1,30.21,NNW,336,0.0,0.0,67,0.00,CLR,,0.00,WeatherDisplay:10.37,2013-08-04 03:44:00,
2013-08-03 22:49:00,63.4,51.8,30.21,NNW,336,1.2,0.0,66,0.00,CLR,,0.00,WeatherDisplay:10.37,2013-08-04 03:49:00,
2013-08-03 22:54:00,63.5,51.9,30.21,NNW,336,0.0,0.0,66,0.00,CLR,,0.00,WeatherDisplay:10.37,2013-08-04 03:54:00,
2013-08-03 22:59:00,63.5,51.9,30.22,NNW,336,0.0,0.0,66,0.00,CLR,,0.00,WeatherDisplay:10.37,2013-08-04 03:59:00,
2013-08-03 23:01:00,63.5,51.9,30.22,NNW,336,0.0,0.0,66,0.00,CLR,,0.00,WeatherDisplay:10.37,2013-08-04 04:01:00,
2013-08-03 23:02:00,63.5,51.5,30.22,NNW,336,0.0,0.0,65,0.00,CLR,,0.00,WeatherDisplay:10.37,2013-08-04 04:02:00,
2013-08-03 23:07:00,63.5,51.5,30.22,NNW,336,0.0,0.0,65,0.00,CLR,,0.00,WeatherDisplay:10.37,2013-08-04 04:07:00,
2013-08-03 23:12:00,63.5,51.5,30.22,NNW,336,0.0,0.0,65,0.00,CLR,,0.00,WeatherDisplay:10.37,2013-08-04 04:12:00,
2013-08-03 23:17:00,63.4,51.4,30.22,NNW,336,0.0,0.0,65,0.00,CLR,,0.00,WeatherDisplay:10.37,2013-08-04 04:17:00,
2013-08-03 23:22:00,63.4,51.4,30.22,NNW,336,0.0,0.0,65,0.00,CLR,,0.00,WeatherDisplay:10.37,2013-08-04 04:22:00,
2013-08-03 23:27:00,63.2,51.2,30.22,NNW,336,0.0,0.0,65,0.00,CLR,,0.00,WeatherDisplay:10.37,2013-08-04 04:27:00,
2013-08-03 23:32:00,63.1,51.1,30.22,NNW,336,0.0,0.0,65,0.00,CLR,,0.00,WeatherDisplay:10.37,2013-08-04 04:32:00,
2013-08-03 23:37:00,62.9,51.0,30.23,NNW,336,0.0,0.0,65,0.00,CLR,,0.00,WeatherDisplay:10.37,2013-08-04 04:37:00,
2013-08-03 23:42:00,62.7,50.8,30.23,NNW,336,0.0,0.0,65,0.00,CLR,,0.00,WeatherDisplay:10.37,2013-08-04 04:42:00,
2013-08-03 23:47:00,62.6,51.1,30.23,NNW,336,0.0,0.0,66,0.00,CLR,,0.00,WeatherDisplay:10.37,2013-08-04 04:47:00,
2013-08-03 23:52:00,62.4,50.5,30.23,NNW,336,0.0,0.0,65,0.00,CLR,,0.00,WeatherDisplay:10.37,2013-08-04 04:52:00,
2013-08-03 23:57:00,62.3,50.8,30.23,NNW,336,0.0,0.0,66,0.00,CLR,,0.00,WeatherDisplay:10.37,2013-08-04 04:57:00,